THORAD AGENA D DEB

Satellite information

Favourite Embed

Satellite Type and Status

DEBRISIN ORBIT

Key statistics

Satellite THORAD AGENA D DEB at a glance.

Uptime

20179

Days in orbit

Revolutions

≈ 14.0

Per day

Orbit

SSO

Sun Synchronous Orbit

Inclination

98.9

Latest

Satellite identification and parameters

Extended collection of information and parameters for THORAD AGENA D DEB.

Object identification

Identified? True

Debris? True

Object name: THORAD AGENA D DEB

International designator: 1970-025MV

Object number (NORAD): 6139

Object ID (CCSDS): 6139

Country: UNITED STATES OF AMERICA (US)

Current information (Y/N): Y

RCS size: SMALL

Orbital parameters

Period: 102.806 minutes

Inclination: 98.9357 deg

SMA: 7269.532 km

Apoapsis: 941.961 km

Periapsis: 840.833 km

RAAN: 55.0552 deg

Eccentricy: 0.0069556

Argument of periapsis: 243.5107 deg

Mean anomaly: 115.8913 deg

Mean motion: 14.00693519 rev/day

Mean motion (dot): 0.00001477 rev/day2

B* drag term: 0.0010001 1/REarth

Two-line elements (TLE)

Creation date: June 26, 2025, 10:36 p.m.

Reference frame: TEME

Reference center: EARTH

Epoch: June 26, 2025, 1:54 p.m. UTC

TLE line 0: 0 THORAD AGENA D DEB

TLE line 1: 1 6139U 70025MV 25177.57939190 .00001477 00000-0 10001-2 0 9991

TLE line 2: 2 6139 98.9357 55.0552 0069556 243.5107 115.8913 14.00693519779185

Live tracking on map

Real-time ground track for satellite THORAD AGENA D DEB.

In-orbit conjunctions

A list of the most updated potential collisions computed for object THORAD AGENA D DEB.

Target Orbit TCA Probability of collision Miss distance Type
COSMOS 1275 DEB LEO 2025-03-26 17:13:17 0.0002018788 168.0 (m) DEBRIS
COSMOS 1275 DEB LEO 2025-02-13 17:05:38 0.000109091 238.0 (m) DEBRIS
METEOR 2-11 DEB LEO 2024-06-10 12:17:36 0.0002150125 387.0 (m) DEBRIS

Associated space launch

Meteorological research and development satellite

THORAD AGENA D DEB was lifted into orbit during the mission ‘Thorad SLV-2G Agena D | Nimbus 4’, on board a Thorad SLV-2G Agena D space rocket.

The launch took place on April 8, 1970, 8:17 a.m. from Space Launch Complex 2E.

For more information about the launch, click the button.

Launch to space Thorad SLV-2G Agena D | Nimbus 4
Thorad SLV-2G Agena D | Nimbus 4

Agency: N/A

Status: Launch Successful

Launch date: April 8, 1970, 8:17 a.m. UTC

Rocket: Thorad SLV-2G Agena D

Launch pad: Space Launch Complex 2E

Location: Vandenberg SFB, CA, USA

...

Latest news about this satellite

There are no fresh news available about this satellite. Check back as we update our databases every day.


Newsletter sign-up

Weekly statistics, charts and insights to help you stay on top of the space industry.